Location: Follega
(52.8850°N, 5.7362°E)
Time: 22:36:24
(UTC+00:00)

STARLINK-1236 - Pass Details

Date: 03 October 2020
Orbit: 548 x 551 km, 53.0° (Epoch: 26 October)

Event Time Altitude Azimuth Distance (km) Brightness Sun altitude
Exits shadow 03:05:19 49° 138° (SE) 718 4.2 -23.8°
Drops below altitude 10° 03:08:30 10° 117° (ESE) 1,824 6.7 -23.4°
Sets 03:10:44 0° 115° (ESE) 2,716 7.7 -23.1°
